Location: Champs
(48.8539°N, 2.6040°E)
Time: 17:29:10
(UTC+00:00)

DMSP 5D-2 F13 DEB - Pass Details

Date: 12 August 2022
Orbit: 710 x 775 km, 98.8° (Epoch: 23 September)

Event Time Altitude Azimuth Distance (km) Brightness Sun altitude
Exits shadow 23:07:58 80° 174° (S) 789 ? -25.6°
Maximum altitude 23:08:16 88° 256° (WSW) 780 ? -25.6°
Drops below altitude 10° 23:13:27 10° 345° (NNW) 2,341 ? -25.8°
Sets 23:15:47 0° 346° (NNW) 3,276 ? -25.8°
